sat.trackr.live / text

‹ back to catalog

2024-199AC

NORAD 61761 · 2024-199AC

PAYLOAD ACTIVE UNKNOWN

§ Identity

Operator
Country
TBD
Launch date
2024-11-04
Launch site
VOSTO
Launch vehicle
Mass (kg)
RCS (m²)

External: N2YO · Heavens-Above · Gunter

§ Orbital elements

Epoch: 2026-09-22T21:36:31.629312Z

Period
91.99 min
Inclination
97.2715°
Eccentricity
0.0001647
Mean motion
15.65371294 rev/d
Perigee alt
371.1 km
Apogee alt
373.3 km
Semi-major
6,750.3 km
B*
4.8648e-4
RAAN
145.0571°
Arg perigee
244.5649°
Mean anomaly
115.5440°
Rev number
15,285

§ Raw data

2024-199AC1 61761U 24199AC  26265.90036608  .00048487  00000+0  48648-3 0  99922 61761  97.2715 145.0571 0001647 244.5649 115.5440 15.65371294152853

JSON: /api/v1/satellites/61761 · /tle

For live sub-satellite position, see the globe view (requires WebGL).

§ Visibility from observer

Set your observer location to see the next 7 days of passes ≥ 10°. The values pass through the URL so the page stays shareable.

No JS? Fill the form by hand. The geolocation button needs JavaScript.